Regional Weather Roundup
Issued by NWS

Home | Current Version | Previous Version | Graphics & Text | Print | Product List | Glossary On
Versions: 1 2 3 4 5 6 7 8 9 10 11 12 13 14 15 16 17 18 19 20 21 22 23 24 25 26 27 28 29 30 31 32 33 34 35 36 37 38 39 40 41 42 43 44 45 46 47 48 49 50
000
ASUS43 KDMX 142101
RWRIA

WEATHER ROUNDUP FOR IOWA
NATIONAL WEATHER SERVICE DES MOINES IA
300 PM CST THU DEC 14 2017

NOTE: "FAIR" INDICATES FEW OR NO CLOUDS BELOW 12,000 FEET WITH NO
SIGNIFICANT WEATHER AND/OR OBSTRUCTIONS TO VISIBILITY.

* - THESE STATIONS ARE NOT NWS STATIONS...THUS NOT UNDER NWS
QUALITY CONTROL.  THEY ALSO DO NOT REPORT WEATHER SUCH
AS PRECIPITATION OR FOG.

IAZ001>003-012>014-020>022-031>034-043>046-142200-
   NORTHWEST IOWA

CITY           SKY/WX    TMP DP  RH WIND       PRES   REMARKS
CARROLL *      CLOUDY    34  25  69 NW12      30.05S WCI  25
CHEROKEE *     CLOUDY    34  27  75 N6        30.05R WCI  29
DENISON *      CLOUDY    36  23  60 NW12      30.06S WCI  27
LE MARS *      CLOUDY    36  27  69 NW3       30.05S
ORANGE CITY *  FLURRIES  36  30  80 NW6       30.04R WCI  31
SHELDON *      CLOUDY    34  27  75 NW9       30.02S WCI  26
SIOUX CITY     CLOUDY    38  25  59 NW10      30.06R WCI  31
SPENCER        CLOUDY    33  23  66 NW12      30.03R WCI  24
STORM LAKE *     N/A     32  23  69 NW14      30.04R WCI  22
$$

IAZ055>058-069>071-079>083-090>094-142200-
   SOUTHWEST IOWA

CITY           SKY/WX    TMP DP  RH WIND       PRES   REMARKS
ATLANTIC *     CLOUDY    36  25  64 N8        30.05S WCI  29
AUDUBON *      CLOUDY    34  27  75 W3        30.06S
CLARINDA *     CLOUDY    39  27  60 CALM        N/A
COUNCIL BLFS * CLOUDY    39  27  60 NW12      30.05R WCI  32
CRESTON *      CLOUDY    34  25  69 NW7       30.07R WCI  28
HARLAN  *      CLOUDY    36  25  64 N10G17    30.08S WCI  28
LAMONI         CLOUDY    34  21  59 N8        30.05S WCI  27
RED OAK *      CLOUDY    39  27  60 N6        30.06R WCI  35
SHENANDOAH *   PTSUNNY   41  25  52 NW9       30.06S
$$

IAZ047>049-059>061-072>074-084-142200-
   CENTRAL IOWA

CITY           SKY/WX    TMP DP  RH WIND       PRES   REMARKS
AMES           CLOUDY    31  20  63 W10       30.06R WCI  22
ANKENY *       CLOUDY    30  19  64 W7        30.08R WCI  23
BOONE *        CLOUDY    30  21  69 NW8       30.04R WCI  23
CHARITON *     CLOUDY    32  19  59 NW7       30.06R WCI  26
DES MOINES     CLOUDY    32  19  58 NW8       30.06S WCI  25
GRINNELL*      CLOUDY    28  18  67 NW14G20   30.06S WCI  16
KNOXVILLE *    CLOUDY    30  16  55 N7        30.05S WCI  23
MARSHALLTOWN   CLOUDY    28  18  66 NW12      30.04F WCI  18
NEWTON *       CLOUDY    28  18  64 NW9       30.06R WCI  20
PELLA *        CLOUDY    29  18  61 NW8       30.08S WCI  21
$$

IAZ004>006-015-016-023>025-035-036-142200-
   NORTH CENTRAL IOWA

CITY           SKY/WX    TMP DP  RH WIND       PRES   REMARKS
ALGONA *       CLOUDY    30  23  74 NW12      30.03R WCI  21
CLARION *      CLOUDY    30  21  69 NW12      30.04R WCI  21
ESTHERVILLE    CLOUDY    30  21  69 NW16      30.02R WCI  19
FORT DODGE *   CLOUDY    30  22  72 NW7       30.05R WCI  23
MASON CITY     CLOUDY    25  17  72 NW13      30.03F WCI  14
FOREST CITY *  CLOUDY    28  21  74 NW8       30.02S WCI  20
WEBSTER CITY * CLOUDY    32  19  59 NW15      30.02S WCI  22
IOWA FALLS *   CLOUDY    29  20  69 NW8       30.04S WCI  21
$$

IAZ007>011-017>019-026>030-037>042-050>054-066-142200-
   NORTHEAST IOWA

CITY           SKY/WX    TMP DP  RH WIND       PRES   REMARKS
CEDAR RAPIDS   CLOUDY    25  16  68 VRB7      30.05F WCI  17
CHARLES CITY * CLOUDY    27  16  63 W7G18     30.02F WCI  19
CLINTON *      CLOUDY    27  13  55 S7        30.07S WCI  19
DECORAH *      CLOUDY    27  16  63 SW6G12    29.99F WCI  20
DUBUQUE        SUNNY     26  13  57 W6        30.03F WCI  19
MONTICELLO *   MOSUNNY   28  16  59 VRB6      30.05S WCI  22
OELWEIN *      PTSUNNY   27  18  69 SW9       30.03S WCI  17
WATERLOO       CLOUDY    26  14  60 NW6       30.04F WCI  19
$$

IAZ064-065-067-068-078-142200-
   EAST CENTRAL IOWA

CITY           SKY/WX    TMP DP  RH WIND       PRES   REMARKS
DAVENPORT      CLOUDY    26  16  65 W7        30.09R WCI  18
IOWA CITY      CLOUDY    28  16  60 W7        30.09S WCI  21
MT. PLEASANT * CLOUDY    28  16  60 W7        30.08S WCI  21
MUSCATINE *    CLOUDY    28  16  59 W5        30.09S WCI  23
QUAD CITIES    CLOUDY    29  17  61 W5        30.07S WCI  24
$$

IAZ062-063-075>077-085>089-095>099-142200-
   SOUTHEAST IOWA

CITY           SKY/WX    TMP DP  RH WIND       PRES   REMARKS
BURLINGTON     PTSUNNY   30  18  60 W5        30.07S WCI  25
FAIRFIELD *    CLOUDY    27  16  63 W8        30.07S WCI  18
FORT MADISON * CLOUDY    30  18  59 W6        30.08R WCI  24
KEOKUK *       CLOUDY    30  18  59 W6        30.07S WCI  24
OSKALOOSA *    CLOUDY    28  18  67 W5        30.07S WCI  22
OTTUMWA        CLOUDY    29  17  61 NW5       30.06F WCI  24
WASHINGTON *   CLOUDY    27  18  69 W8        30.09S WCI  18
$$

ABBREVIATIONS USED IN REMARKS
   TC - TEMPERATURES IN CELSIUS
  WCI - WIND CHILL INDEX
   HX - HEAT INDEX
  VSB - VISIBILITY
$$





USA.gov is the U.S. government's official web portal to all federal, state and local government web resources and services.